Location: *
(42.3442°N, 9.2072°E)
Time: 15:02:06
(UTC+00:00)

Aureole 1 Rocket - Pass Details

Date: 09 April 2020
Orbit: 379 x 1379 km, 73.9° (Epoch: 27 May)

Event Time Altitude Azimuth Distance (km) Brightness Sun altitude
Rises 18:31:37 0° 189° (S) 4,256 7.3 -6.8°
Reaches altitude 10° 18:34:39 10° 187° (S) 3,191 6.6 -7.3°
Maximum altitude 18:42:10 67° 107° (ESE) 1,130 4.1 -8.6°
Drops below altitude 10° 18:48:05 10° 26° (NNE) 2,532 6.1 -9.6°
Sets 18:50:15 0° 24° (NNE) 3,332 6.8 -10.0°
